Location: Unspecified
(35.7250°N, 0.0000°E)
Time: 14:19:59
(UTC+00:00)

Explorer 7 - Pass Details

Date: 24 June 2019
Orbit: 485 x 680 km, 50.3° (Epoch: 16 July)

Event Time Altitude Azimuth Distance (km) Brightness Sun altitude
Rises 07:07:08 0° 224° (SW) 2,648 9.9 26.1°
Reaches altitude 10° 07:09:17 10° 222° (SW) 1,791 9.1 26.5°
Maximum altitude 07:13:20 72° 138° (SE) 593 7.6 27.3°
Drops below altitude 10° 07:17:43 10° 54° (NE) 1,922 10.8 28.2°
Sets 07:20:05 0° 52° (NE) 2,863 11.4 28.7°
